User: anonymous   Login
Location: Unspecified
(0.0000°N, 0.0000°E)
Time: 10:29:30
(UTC+00:00)
Language:

DOVE 4 - Orbit

View from above orbital plane
View from above orbital plane
View from above satellite
View from above satellite

Ground track
Ground track

The orbit data is extracted from the following two-line orbital elements,

1 39430U 13066Q   18021.40764680  .00000257  00000-0  55167-4 0  9994
2 39430  97.6820   8.9959 0153048  74.0685 287.7320 14.59008780221752
Epoch (UTC): 21 January 2018 09:47:00
Eccentricity: 0.0153048
inclination: 97.6820°
perigee height: 588 km
apogee height: 804 km
right ascension of ascending node: 8.9959°
argument of perigee: 74.0685°
revolutions per day: 14.59008780
mean anomaly at epoch: 287.7320°
orbit number at epoch: 22175

The dashed part of the orbit path shows where the satellite is in the earth's shadow,  

DLR